www.pogodaiklimat.ru

Погода и климат >> Архив погоды >> Иран >> Kish Island


ПОГОДА в Kish Island

  • Прогноз погоды в Kish Island
  • Монитор погоды в Kish Island
  • Климат города

АРХИВ ПОГОДЫ в Kish Island

Время (UTC), дата Ветер
(напр.,м/с)
 
Видим.   Явления Облачность Т
(С)
Тd
(С)
f
(%)
Тe
(С)
Тes
(С)
Комфортность P
(гПа)
Po
(гПа)
Тmin
(С)
Tmax
(С)
R
(мм)
R24
(мм)
S
(см)
15 8.11 З 3 5000 м мгла ясно +27.0 +20.8 69 +34 +34 очень
душно
1013.0 1009.6 +30.6
18 8.11 З 2 6000 м мгла ясно +25.6 +19.9 71 +31 +31 очень
душно
1013.6 1010.2
21 8.11 З 2 6000 м мгла ясно +25.4 +19.6 70 +31 +31 очень
душно
1012.8 1009.4
00 9.11 З 2 5000 м мгла ясно +25.2 +21.1 78 +32 +32 очень
душно
1012.2 1008.8
03 9.11 штиль 0 6000 м дымка 1/0
[Ci fib]
+24.2 +20.7 81 +30 +30 очень
душно
1012.7 1009.3 +24.2
06 9.11 ЮВ 2 6000 м мгла 3/0
[Ci fib]
+30.6 +24.0 68 +42 +48 опасность
перегрева
1013.9 1010.5
09 9.11 ЮВ 3 5000 м мгла 4/1 900 м
[Cu hum Ci fib]
+31.6 +23.7 63 +43 +50 опасность
перегрева
1012.4 1009.0
12 9.11 СЗ 2 5000 м мгла 9/0
[Ac trans Cs]
+30.2 +20.5 56 +37 +39 очень
душно
1011.5 1008.1
15 9.11 СЗ 5 7000 м мгла 9/0
[Ac trans Cs]
+28.8 +20.7 62 +36 +36 очень
душно
1011.8 1008.3 +32.2
18 9.11 З 4 7000 м мгла 9/0
[Ac trans Cs]
+28.2 +20.5 63 +35 +35 очень
душно
1012.5 1009.1
21 9.11 СЗ 2 7000 м мгла 8/0
[Ac trans Cs]
+27.4 +19.3 61 +33 +33 очень
душно
1012.2 1008.8
00 10.11 СЗ 5 6000 м мгла 8/0
[Ac trans Cs]
+27.0 +19.1 62 +32 +32 очень
душно
1011.6 1008.2
03 10.11 СЗ 2 7000 м мгла 8/0
[Ac trans Cs]
+26.0 +18.2 62 +31 +31 очень
душно
1012.3 1008.9 +25.6
06 10.11 СЗ 7 7000 м мгла 8/1 900 м
[Cu hum As op]
+29.0 +18.1 52 +34 +34 очень
душно
1015.3 1011.9
09 10.11 З 7 8000 м слабый дождь 10/4 750 м
[Cb calv As op]
+29.0 +14.1 40 +31 +31 жарко 1014.8 1011.4
12 10.11 СЗ 3 10 км 6/3 900 м
[Cu hum Ac trans]
+29.0 +18.1 52 +34 +35 очень
душно
1013.3 1009.9 0.1
15 10.11 З 3 10 км 3/1 900 м
[Cu hum Ac trans]
+26.0 +18.3 63 +31 +31 очень
душно
1013.9 1010.4 +30.0
18 10.11 СЗ 3 10 км ясно +25.0 +18.8 68 +30 +30 душно 1014.1 1010.7
21 10.11 СЗ 2 10 км ясно +24.8 +19.4 72 +30 +30 душно 1013.5 1010.2
00 11.11 ЮВ 2 10 км 3/1 900 м
[Cu hum Ac trans]
+23.6 +18.9 75 +28 +28 душно 1013.2 1009.8
03 11.11 штиль 0 10 км 4/1 900 м
[Cu hum Ac trans Ci fib]
+24.2 +19.6 76 +29 +29 душно 1014.1 1010.7 +23.6
06 11.11 С 8 8000 м мгла 8/1 900 м
[Cu hum Ac trans Ci fib]
+28.0 +21.8 69 +36 +37 очень
душно
1017.2 1013.8
09 11.11 С 4 10 км 9/1 900 м
[Cu hum As op Ci fib]
+29.0 +19.9 58 +35 +39 очень
душно
1015.3 1011.9
12 11.11 С 8 7000 м в посл. час дождь 10/5 750 м
[Cb calv As op]
+25.6 +17.8 62 +30 +30 душно 1016.5 1013.0 0.1
15 11.11 З 5 8000 м мгла {дождь} 8/5 750 м
[Cb calv As op]
+25.4 +18.9 67 +30 +30 душно 1016.0 1012.5 +30.8
18 11.11 З 2 8000 м мгла 6/3 750 м
[Cb calv Ac trans]
+24.4 +19.1 72 +29 +29 душно 1016.0 1012.5
21 11.11 СЗ 2 6000 м мгла 4/1 900 м
[Cu hum Ac trans]
+23.0 +18.6 76 +29 +29 очень
душно
1014.8 1011.3
00 12.11 штиль 0 5000 м гроза без осадков {дождь} 10/6 750 м
[Cb cap As op]
+22.8 +19.7 83 +29 +29 очень
душно
1013.9 1010.4 1
03 12.11 штиль 0 7000 м мгла {гроза} 5/1 900 м
[Cu hum Ac trans Ci fib]
+22.6 +18.5 78 +28 +28 душно 1015.0 1011.5 +22.0
06 12.11 СЗ 3 10 км 1/0
[Ci fib]
+28.0 +21.1 66 +35 +40 очень
душно
1016.4 1013.0
09 12.11 З 10 10 км ясно +29.4 +19.7 56 +35 +36 очень
душно
1015.0 1011.5
12 12.11 З 8 10 км 4/0
[Ac trans Cc]
+29.0 +21.3 63 +37 +37 очень
душно
1014.5 1011.0
15 12.11 СЗ 6 10 км 5/0
[Ac trans Cc]
+27.0 +20.3 67 +33 +33 очень
душно
1014.4 1010.9 +30.0
18 12.11 СЗ 8 10 км 4/0
[Ac trans Ci fib]
+26.4 +20.3 69 +33 +33 очень
душно
1014.6 1011.2
21 12.11 СЗ 6 10 км 3/0
[Ac trans Ci fib]
+26.0 +20.0 70 +32 +32 очень
душно
1013.7 1010.3
00 13.11 СЗ 6 10 км 3/0
[Ac trans Ci fib]
+25.0 +19.6 72 +30 +30 душно 1012.4 1009.0
03 13.11 СЗ 6 10 км 1/0
[Ci fib]
+25.4 +18.3 65 +30 +30 душно 1013.2 1009.8 +24.8
06 13.11 СЗ 9 10 км 1/0
[Ci fib]
+28.8 +18.2 53 +34 +34 очень
душно
1014.4 1011.0
09 13.11 З 8 10 км 1/0
[Ci fib]
+29.8 +17.2 47 +34 +36 очень
душно
1012.8 1009.4
12 13.11 СЗ 11 10 км 3/0
[Ac trans Ci fib]
+29.4 +17.5 49 +34 +34 очень
душно
1011.8 1008.3
15 13.11 СЗ 7 10 км 4/0
[Cc]
+27.2 +18.5 59 +32 +32 очень
душно
1012.1 1008.6 +30.2
18 13.11 СЗ 5 10 км 4/0
[Cc]
+26.6 +18.5 61 +31 +31 душно 1012.6 1009.2
21 13.11 СЗ 4 10 км 4/0
[Cc]
+26.0 +18.2 62 +31 +31 очень
душно
1011.8 1008.4
00 14.11 СЗ 4 10 км 4/0
[Ci fib]
+25.8 +14.7 50 +28 +28 жарко 1011.1 1007.7
03 14.11 СЗ 4 10 км 4/0
[Ci fib]
+25.6 +12.5 44 +27 +27 жарко 1012.1 1008.7 +25.4
06 14.11 СЗ 6 10 км 4/0
[Ci fib]
+29.0 +13.2 38 +31 +33 жарко 1014.1 1010.7
09 14.11 С 4 10 км 4/0
[Ci fib]
+30.6 +14.2 37 +32 +39 жарко 1012.6 1009.2
12 14.11 ЮЗ 3 10 км 4/0
[Ci fib]
+30.0 +14.9 40 +32 +34 жарко 1010.9 1007.5
15 14.11 ЮВ 3 10 км 1/0
[Cc]
+26.8 +18.2 59 +31 +31 душно 1012.1 1008.6 +32.4
18 14.11 ЮВ 2 10 км 1/0
[Cc]
+25.4 +19.0 68 +30 +30 душно 1013.2 1009.8
21 14.11 СВ 2 10 км 1/0
[Ci fib]
+24.4 +18.8 71 +29 +29 душно 1013.0 1009.6
00 15.11 В 3 10 км 1/0
[Ci fib]
+24.2 +17.8 67 +28 +28 душно 1012.5 1009.1
03 15.11 В 4 10 км 5/0
[Ac trans Cc]
+23.8 +19.5 77 +29 +29 душно 1013.7 1010.3 +23.4
06 15.11 В 8 10 км 5/0
[Ac trans Ci fib]
+29.0 +17.0 48 +33 +34 очень
душно
1015.9 1012.5
09 15.11 ЮВ 10 10 км 4/0
[Ci fib]
+30.6 +15.1 39 +33 +33 душно 1014.4 1011.0
12 15.11 ЮВ 10 10 км 4/0
[Ci fib]
+30.4 +14.8 39 +33 +33 душно 1013.4 1009.9

 

Местоположение метеостанции Kish Island (Иран): широта 26.50 долгота 53.98 высота над уровнем моря 30 м.

В архиве по умолчанию представлена погода в Kish Island за последнюю неделю. Архивные данные за месяц целиком и за предыдущие месяцы, начиная с января 2011 года, Вы можете получить, выбрав интересующий диапазон дат из раскрывающегося списка и нажав кнопку "Ввод!".


*Определитесь, кто Вы:
робот инопланетянин человек

Внимание! Время в таблицах - всемирное. Для получения местного времени необходимо прибавить поправку, которая в Kish Island равна 3.5 ч.

Смотрите также архив погоды в соседних городах и на ближайших метеорологических станциях:

Погода в Bandar Lengeh (Иран) (85 км)
Погода в Sirri Island (Иран) (87 км)
Погода в Abu Musa Island (Иран) (113 км)
Погода в Dubai (ОАЭ) (194 км)
Погода в Sharjah (ОАЭ) (202 км)
Погода в Dubai Al Maktoum Int Airport (ОАЭ) (214 км)
Погода в Ras Al Khaimah Int Airport (ОАЭ) (218 км)
Погода в Khasab Airport (Оман) (227 км)
Погода в Khasab (Оман) (228 км)
Погода в Abu Dhabi Bateen Airport (ОАЭ) (235 км)

Пояснения к столбцам:

Ветер - указаны скорость ветра в м/с - средняя за 10 мин, порывы в срок и между сроками (в фигурных скобках) и направление, откуда дует ветер: С - северный, СВ - северо-восточный, В - восточный, ЮВ - юго-восточный, Ю - южный, ЮЗ - юго-западный, З - западный, СЗ - северо-западный.
Видимость - горизонтальная дальность видимости в метрах или километрах. При видимости от 1 до 10 км при отсутствии осадков обычно наблюдается дымка, при ухудшении видимости до 1 км и менее - туман. В сухую погоду видимость может ухудшаться дымом, пылью или мглою.
Явления - указаны атмосферные явления, наблюдавшиеся в срок или в последний час перед сроком; фигурными скобками обозначены явления, наблюдавшиеся между сроками (за 1-3 часа до срока); квадратными скобками обозначены град или гололедные отложения с указанием их диаметра в мм.
Облачность - указаны через наклонную черту общая и нижняя облачность в баллах и высота нижней границы облаков в метрах; квадратными скобками обозначены формы облаков: Ci - перистые, Cs - перисто-слоистые, Cc - перисто-кучевые, Ac - высококучевые, As - высокослоистые, Sc - слоисто-кучевые, Ns - слоисто-дождевые, Cu - кучевые, Cb - кучево-дождевые. Подробнее классификацию облаков см. в Атласе облаков (PDF).
T - Температура воздуха - температура, измеренная на высоте 2 м над землей.
Td - Температура точки росы - температура, при понижении до которой содержащийся в воздухе водяной пар достигнет насыщения.
f - Относительная влажность воздуха - влажноcть воздуха, измеренная на высоте 2 м над землей.
Te - Эффективная температура - температура, которую ощущает одетый по сезону человек в тени. Характеристика душности погоды. При расчете учитывается влияние влажности воздуха и скорости ветра на теплоощущения человека.
Tes - Эффективная температура на солнце - температура, которую ощущает человек, с поправкой на солнечный нагрев. Характеристика знойности погоды. Зависит от высоты солнца над горизонтом, облачности и скорости ветра. Ночью, в пасмурную погоду, а также при ветре 12 м/с и более поправка равна нулю.
P - Атмосферное давление - приведенное к уровню моря атмосферное давление.
Po - Атмосферное давление - измеренное на уровне метеостанции атмосферное давление.
Tmin - Минимальная температура - минимум температуры воздуха на высоте 2 м над землей.
Tmax - Максимальная температура - максимум температуры воздуха на высоте 2 м над землей.
R - Количество осадков - Количество выпавших осадков за период времени, мм. При наведении курсора мыши на число - период времени, за который выпало указанное количество осадков.
R24 - Количество осадков - Количество выпавших осадков за 24 часа, мм.
S - Снежный покров - Высота снежного покрова, см. При наведении курсора мыши на число - состояние снежного покрова и степень покрытия местности в баллах.